Weather History for Dickinson, ND

Change the Weather History Date:

Wednesday, February 19, 2014

  Actual Average Record
Temperature  
Mean Temperature 33 °F 21 °F  
Max Temperature 43 °F 32 °F 62 °F (1995)
Min Temperature 23 °F 11 °F -40 °F (1929)
Degree Days  
Heating Degree Days 32 44  
Month to date heating degree days 1009 867  
Since 1 July heating degree days 6142 5914  
Cooling Degree Days 0 0  
Month to date cooling degree days 0 0  
Year to date cooling degree days 0 0  
Moisture  
Dew Point 24 °F    
Average Humidity 63    
Maximum Humidity 76    
Minimum Humidity 49    
Precipitation  
Precipitation T in 0.02 in 0.29 in (1952)
Month to date precipitation 0.10 0.19  
Year to date precipitation 0.14 0.49  
Sea Level Pressure  
Sea Level Pressure 29.54 in    
Wind  
Wind Speed 15 mph (WSW)    
Max Wind Speed 31 mph    
Max Gust Speed 36 mph    
Visibility 10 miles    
Events      
T = Trace of Precipitation, MM = Missing Value Source: NWS Daily Summary

Daily Weather History Graph

Daily Weather History Graph

Search for Another Location

Airport:

Trip Planner

Search our weather history database for the weather conditions in past years. The results will help you decide how hot, cold, wet, or windy it might be!

Date:

Astronomy

Feb. 19, 2014 Rise Set
Actual Time 6:48 AM MST 5:22 PM MST
Civil Twilight 6:17 AM MST 5:53 PM MST
Nautical Twilight 5:42 AM MST 6:28 PM MST
Astronomical Twilight 5:07 AM MST 7:03 PM MST
Moon 10:38 PM MST (2/19) 8:36 AM MST (2/19)
Length of Visible Light 11h 35m
Length of Day
10h 33m
Waning Gibbous, 79% of the Moon is Illuminated
Feb 19
Waning Gibbous
Feb 22
Last Quarter
Mar 1
New
Mar 8
First Quarter
Mar 16
Full

Hourly Weather History & Observations

Time (MST) Temp. Windchill Dew Point Humidity Pressure Visibility Wind Dir Wind Speed Gust Speed Precip Events Conditions
12:56 AM 24.1 °F 14.4 °F 18.0 °F 77% 29.73 in 10.0 mi South 9.2 mph - N/A   Clear
1:56 AM 25.0 °F 13.6 °F 18.0 °F 75% 29.70 in 10.0 mi SSW 12.7 mph - N/A   Clear
2:56 AM 24.1 °F 13.7 °F 17.1 °F 75% 29.65 in 10.0 mi South 10.4 mph - N/A   Clear
3:56 AM 25.0 °F 14.2 °F 18.0 °F 75% 29.62 in 10.0 mi South 11.5 mph - N/A   Clear
4:56 AM 27.0 °F 16.1 °F 19.9 °F 75% 29.59 in 10.0 mi South 12.7 mph - N/A   Overcast
5:56 AM 28.9 °F 19.8 °F 19.9 °F 69% 29.55 in 10.0 mi South 10.4 mph - N/A   Mostly Cloudy
6:56 AM 30.9 °F 20.7 °F 19.9 °F 64% 29.51 in 10.0 mi South 13.8 mph - N/A   Unknown
7:56 AM 32.0 °F 22.5 °F 21.0 °F 64% 29.49 in 10.0 mi South 12.7 mph - N/A   Partly Cloudy
8:56 AM 34.0 °F 23.4 °F 21.9 °F 61% 29.48 in 10.0 mi South 17.3 mph - N/A   Overcast
9:56 AM 41.0 °F 33.1 °F 26.1 °F 55% 29.46 in 10.0 mi West 15.0 mph - N/A   Overcast
10:56 AM 42.1 °F 33.9 °F 30.9 °F 65% 29.47 in 10.0 mi WNW 17.3 mph 25.3 mph N/A   Overcast
11:56 AM 39.9 °F 30.8 °F 32.0 °F 73% 29.47 in 10.0 mi WNW 18.4 mph - N/A   Overcast
12:22 PM 37.9 °F 27.1 °F 32.0 °F 79% 29.41 in 10.0 mi WNW 23.0 mph 29.9 mph N/A   Overcast
12:45 PM 37.9 °F 27.9 °F 32.0 °F 79% 29.42 in 10.0 mi NW 19.6 mph 29.9 mph N/A   Overcast
12:56 PM 37.0 °F 25.6 °F 30.9 °F 79% 29.49 in 10.0 mi NW 24.2 mph 32.2 mph N/A   Overcast
1:56 PM 39.0 °F 31.4 °F 28.9 °F 67% 29.49 in 10.0 mi WNW 12.7 mph - 0.00 in   Overcast
2:56 PM 42.1 °F 34.2 °F 25.0 °F 51% 29.50 in 10.0 mi West 16.1 mph - N/A   Mostly Cloudy
3:56 PM 39.9 °F 30.8 °F 27.0 °F 60% 29.52 in 10.0 mi West 18.4 mph 27.6 mph N/A   Clear
4:56 PM 36.0 °F 28.5 °F 28.0 °F 73% 29.54 in 10.0 mi WSW 10.4 mph - N/A   Mostly Cloudy
5:56 PM 35.1 °F 26.9 °F 26.1 °F 70% 29.55 in 10.0 mi WSW 11.5 mph - N/A   Partly Cloudy
6:56 PM 33.1 °F 24.4 °F 21.9 °F 64% 29.57 in 10.0 mi WSW 11.5 mph - N/A   Clear
7:56 PM 30.9 °F 21.2 °F 21.0 °F 67% 29.57 in 10.0 mi West 12.7 mph - N/A   Clear
8:56 PM 32.0 °F 20.8 °F 23.0 °F 69% 29.58 in 10.0 mi West 17.3 mph - N/A   Clear
9:56 PM 30.0 °F 18.3 °F 23.0 °F 75% 29.57 in 10.0 mi West 17.3 mph - N/A   Clear
10:56 PM 30.9 °F 17.8 °F 21.9 °F 69% 29.56 in 10.0 mi West 23.0 mph - N/A   Clear
11:56 PM 30.0 °F 16.6 °F 19.9 °F 66% 29.55 in 10.0 mi West 23.0 mph 34.5 mph N/A   Clear